Total_Precipitation_Accumulation
1.50 1.89 2.58 2.42 2.07 1.91 1.94 1.89 1.82 1.65 1.53 1.53 1.49 1.39 1.30 1.17 1.06 1.00 0.94 0.90 0.84 0.81 0.83 0.90 0.93 0.89 0.97 1.09 1.22 1.29 1.34 1.43 1.59 1.84 1.96 1.97 2.06 2.16 2.34 2.47 2.34 1.78 1.72
1.20 1.62 2.26 2.18 1.79 1.72 1.73 1.77 1.74 1.60 1.53 1.46 1.50 1.44 1.36 1.29 1.11 0.98 0.91 0.83 0.81 0.80 0.77 0.79 0.87 0.83 0.89 1.00 1.12 1.18 1.29 1.53 1.99 2.36 2.53 2.34 2.33 2.35 2.39 2.33 2.26 1.80 1.65
1.07 1.30 1.69 1.89 1.68 1.61 1.53 1.62 1.65 1.55 1.42 1.34 1.35 1.35 1.30 1.22 1.06 0.91 0.83 0.82 0.84 0.80 0.73 0.82 0.85 0.79 0.87 0.99 1.09 1.12 1.32 1.71 2.36 3.01 3.12 2.52 2.12 2.37 2.38 2.31 2.05 1.64 1.45
0.96 1.24 1.36 1.67 1.60 1.54 1.47 1.53 1.50 1.42 1.27 1.26 1.21 1.17 1.13 1.12 0.99 0.81 0.76 0.77 0.79 0.75 0.76 0.87 0.88 0.85 0.85 0.93 1.05 1.25 1.50 1.79 2.37 2.89 2.85 2.07 1.66 1.84 2.05 1.83 1.64 1.42 1.22
0.92 1.19 1.48 1.59 1.43 1.40 1.33 1.33 1.30 1.29 1.25 1.21 1.14 1.12 1.04 0.99 0.93 0.81 0.77 0.77 0.79 0.79 0.78 0.83 0.92 0.92 0.90 0.92 1.08 1.36 1.68 2.05 2.40 2.53 2.05 2.23 2.12 1.83 1.72 1.55 1.48 1.23 1.02
0.77 0.88 1.22 1.36 1.25 1.30 1.23 1.15 1.18 1.24 1.28 1.21 1.11 1.04 1.02 1.01 0.98 0.85 0.76 0.76 0.82 0.84 0.83 0.87 1.00 1.01 0.92 0.92 1.07 1.42 1.74 2.16 2.22 1.62 1.27 1.64 1.67 1.62 1.58 1.52 1.37 1.19 1.05
0.70 0.77 0.99 1.25 1.16 1.16 1.14 1.10 1.12 1.20 1.26 1.13 1.02 0.92 0.96 1.00 0.93 0.83 0.80 0.79 0.79 0.82 0.85 0.93 1.00 1.00 0.99 1.04 1.12 1.41 1.80 2.10 1.87 1.28 1.09 1.36 1.32 1.36 1.49 1.52 1.45 1.26 1.07
0.70 0.70 0.89 1.19 1.18 1.15 1.14 1.14 1.20 1.22 1.12 1.02 0.95 0.89 0.89 0.91 0.89 0.86 0.87 0.89 0.82 0.84 0.91 0.95 0.96 0.92 0.98 1.11 1.25 1.39 1.78 1.75 1.35 1.15 1.06 1.15 0.96 1.23 1.42 1.36 1.30 1.19 1.06
0.99 0.93 0.93 1.01 1.08 1.11 1.26 1.33 1.35 1.27 1.06 0.99 0.97 0.93 0.87 0.84 0.83 0.83 0.94 0.96 0.89 0.89 0.95 0.99 0.98 1.00 1.07 1.16 1.27 1.44 1.78 1.88 1.53 1.39 1.12 1.09 0.91 1.26 1.52 1.33 1.17 1.08 1.09
1.67 1.52 1.28 1.13 1.20 1.10 1.15 1.33 1.44 1.18 1.00 0.98 1.02 0.98 0.96 1.01 1.00 1.08 1.05 1.01 1.04 1.09 1.13 1.21 1.15 1.12 1.24 1.33 1.44 1.61 1.83 1.73 1.51 1.68 1.47 1.11 1.04 1.40 1.63 1.65 1.46 1.24 1.16
2.06 1.88 1.71 1.54 1.34 1.30 1.23 1.24 1.51 1.30 1.14 1.23 1.40 1.35 1.40 1.71 1.63 1.71 1.39 1.30 1.40 1.56 1.61 1.67 1.66 1.59 1.53 1.48 1.69 1.90 1.76 1.63 1.88 2.03 1.70 1.23 1.32 1.78 1.96 2.03 1.86 1.67 1.53
2.06 1.84 1.84 1.84 1.54 1.38 1.36 1.65 2.08 1.78 1.70 1.75 1.97 1.85 2.15 2.27 2.15 1.60 1.63 1.84 1.95 2.28 2.40 2.46 2.51 2.24 1.93 1.78 1.98 2.00 1.75 1.84 2.10 1.82 1.51 1.32 1.51 1.94 2.24 2.30 2.12 1.87 1.80
2.15 2.05 1.83 2.07 1.80 1.70 1.87 2.01 2.19 2.25 2.18 2.14 2.21 2.20 2.45 2.25 1.95 1.86 2.18 2.56 2.74 2.90 3.06 3.10 3.02 2.55 2.48 2.66 2.62 2.40 2.28 2.14 2.17 1.87 1.50 1.54 1.73 2.09 2.39 2.47 2.28 2.09 1.95
2.25 2.20 2.15 2.23 2.18 2.15 2.17 2.14 2.03 1.84 1.86 2.01 2.17 2.15 2.35 2.45 2.47 2.44 2.62 2.74 2.97 3.34 3.72 3.64 3.60 3.32 3.26 3.06 2.82 2.80 2.62 2.27 2.42 2.51 2.03 1.84 1.98 2.36 2.57 2.58 2.42 2.28 2.28
2.89 2.77 2.78 2.90 2.75 2.54 2.47 2.18 1.80 1.71 1.62 1.69 1.80 1.94 1.95 2.29 2.59 2.63 2.48 2.52 2.48 2.71 3.15 3.70 3.62 3.80 3.74 3.37 2.88 2.72 2.75 2.58 2.55 2.49 2.11 2.18 2.42 2.47 2.53 2.56 2.52 2.47 2.49
3.85 3.69 3.50 3.58 3.16 2.84 2.60 2.24 1.99 1.76 1.80 1.73 1.65 1.66 1.86 2.12 2.39 2.36 2.33 2.53 2.58 2.51 2.67 3.11 3.28 3.66 3.64 3.26 2.72 2.50 2.46 2.51 2.40 2.38 2.13 2.17 2.33 2.19 2.23 2.55 2.81 2.92 2.83
4.96 4.58 4.00 3.74 3.43 3.17 2.91 2.44 2.07 1.89 1.70 1.81 1.85 1.77 1.82 1.92 2.09 2.06 2.16 2.18 2.26 2.17 2.25 2.47 2.70 2.96 2.93 2.79 2.70 2.58 2.46 2.37 2.20 2.23 2.27 2.19 1.94 2.04 2.19 2.36 2.61 2.79 2.97
5.77 5.18 4.47 3.77 3.78 3.64 3.35 2.69 2.21 1.95 1.87 1.84 1.79 1.65 1.55 1.62 1.63 1.71 1.74 1.70 1.72 1.60 1.73 2.07 2.15 2.42 2.64 2.69 2.79 2.56 2.40 2.44 2.23 2.22 2.19 2.20 2.21 1.93 2.21 2.32 2.39 2.44 2.80
5.91 5.73 5.10 4.92 4.69 4.02 3.30 2.69 2.28 1.99 1.91 1.78 1.68 1.59 1.50 1.43 1.41 1.55 1.66 1.70 1.44 1.44 1.53 1.42 1.82 2.06 2.32 2.41 2.09 2.21 2.05 2.08 1.97 1.74 1.79 1.72 1.96 1.97 2.11 2.07 2.17 2.20 2.53
4.86 4.76 4.71 4.82 4.40 3.80 3.16 2.68 2.40 2.12 1.83 1.64 1.61 1.61 1.50 1.46 1.47 1.64 1.50 1.48 1.35 1.56 1.75 1.83 2.11 2.05 2.00 2.06 1.73 1.92 1.79 1.63 1.63 1.57 1.45 1.53 1.64 1.55 1.81 2.02 2.08 1.85 2.15
3.30 3.40 3.71 3.94 3.69 3.23 2.81 2.32 2.14 2.08 1.88 1.65 1.49 1.38 1.46 1.42 1.60 1.79 1.56 1.82 1.61 1.60 1.69 1.72 1.87 1.86 1.71 1.67 2.01 2.16 1.71 1.33 1.34 1.22 1.19 1.41 1.47 1.51 1.80 2.09 2.18 2.17 1.97
2.44 2.75 3.11 3.36 3.20 2.67 2.45 2.26 2.12 2.06 1.92 1.86 1.70 1.61 1.43 1.41 1.51 1.46 1.75 1.62 1.64 1.76 1.79 1.85 1.97 1.98 1.77 1.72 2.04 2.39 2.11 2.00 1.78 1.07 1.14 1.31 1.40 1.61 1.69 1.71 1.92 2.20 1.98
2.27 2.43 2.37 2.61 2.80 2.55 2.44 2.36 2.26 2.18 1.97 2.02 1.94 1.78 1.44 1.30 1.34 1.41 1.46 1.51 1.73 1.57 1.84 2.04 1.99 2.05 2.05 1.89 1.90 2.27 2.31 2.24 1.89 1.45 1.17 1.15 1.32 1.67 1.71 1.76 1.66 1.84 2.01
1.60 1.87 2.08 2.33 2.51 2.44 2.33 2.13 1.96 1.78 1.69 1.69 1.72 1.72 1.58 1.46 1.31 1.32 1.34 1.54 1.73 1.56 1.96 1.65 1.74 1.98 2.11 1.95 1.86 1.73 1.78 1.96 2.09 1.96 1.59 1.27 1.26 1.44 1.58 1.50 1.50 1.71 1.87
1.13 1.52 1.94 2.28 2.52 2.40 2.10 1.93 1.93 1.82 1.78 1.70 1.64 1.83 1.72 1.63 1.43 1.25 1.35 1.53 1.61 1.55 1.69 1.75 2.03 1.94 1.88 1.87 1.87 1.89 1.95 1.85 1.67 1.79 1.81 1.69 1.53 1.22 1.13 1.21 1.34 1.51 1.58
0.93 1.19 1.55 1.86 2.09 2.10 1.96 1.87 1.91 1.93 1.89 1.76 1.57 1.59 1.50 1.51 1.46 1.36 1.44 1.55 1.54 1.49 1.60 1.67 1.84 1.83 1.91 1.98 1.83 1.73 1.86 1.79 1.70 1.73 1.56 1.49 1.51 1.13 0.98 0.99 1.10 1.32 1.44